Location: ??????
(56.0120°N, 39.1740°E)
Time: 06:32:25
(UTC+00:00)

Cosmos 1626 Rocket - Pass Details

Date: 14 April 2026
Orbit: 596 x 624 km, 82.5° (Epoch: 10 May)

Event Time Altitude Azimuth Distance (km) Brightness Sun altitude
Rises 21:34:14 0° 349° (N) 2,860 8.3 -24.3°
Reaches altitude 10° 21:36:30 10° 354° (N) 1,950 7.2 -24.3°
Maximum altitude 21:40:44 56° 73° (ENE) 720 3.9 -24.2°
Enters shadow 21:40:55 55° 85° (E) 724 3.8 -24.2°
